QPF
0.03 0.04 0.03 0.04 0.04 0.04 0.06 0.06 0.06 0.05 0.05 0.04 0.03 0.02 0.01 0.02 0.03 0.03 0.01 0.01 0.01 0.02 0.02 0.02 0.02 0.02 0.02 0.03 0.05 0.04 0.04 0.03 0.02 0.01 0.01 0.01 0.01 0.01 0.01 0.01 0.01 0.01 0.01
0.04 0.04 0.05 0.05 0.04 0.03 0.04 0.05 0.05 0.06 0.06 0.06 0.05 0.03 0.03 0.03 0.03 0.04 0.02 0.01 0.01 0.02 0.03 0.03 0.03 0.02 0.02 0.04 0.04 0.03 0.04 0.04 0.03 0.02 0.01 0.01 0.01 0.01 0.01 0.01 0.01 0.01 0.01
0.04 0.04 0.04 0.06 0.05 0.05 0.05 0.04 0.04 0.06 0.07 0.07 0.07 0.06 0.05 0.04 0.04 0.04 0.04 0.03 0.02 0.02 0.03 0.04 0.04 0.03 0.03 0.03 0.04 0.04 0.04 0.05 0.05 0.04 0.02 0.01 0.01 0.01 0.01 0.01 0.01 0.01 0.01
0.04 0.04 0.04 0.04 0.05 0.06 0.06 0.05 0.04 0.03 0.04 0.05 0.05 0.06 0.06 0.05 0.05 0.05 0.05 0.04 0.03 0.01 0.02 0.03 0.03 0.03 0.03 0.04 0.05 0.05 0.04 0.04 0.05 0.06 0.04 0.02 0.01 0.01 0.01 0.01 0.01 0.01 0.01
0.04 0.03 0.04 0.05 0.05 0.07 0.07 0.05 0.05 0.05 0.04 0.04 0.04 0.05 0.06 0.05 0.05 0.06 0.05 0.05 0.03 0.02 0.01 0.02 0.02 0.02 0.03 0.05 0.05 0.05 0.04 0.03 0.03 0.04 0.05 0.04 0.02 0.01 0.01 0.01 0.00 0.00 0.01
0.05 0.04 0.04 0.05 0.06 0.08 0.09 0.07 0.05 0.06 0.05 0.05 0.05 0.05 0.05 0.05 0.05 0.05 0.07 0.06 0.05 0.02 0.01 0.01 0.01 0.01 0.02 0.04 0.06 0.07 0.05 0.02 0.02 0.03 0.04 0.05 0.04 0.02 0.01 0.01 0.00 0.00 0.01
0.06 0.05 0.04 0.05 0.08 0.10 0.09 0.08 0.05 0.05 0.06 0.06 0.06 0.05 0.05 0.04 0.04 0.04 0.05 0.07 0.07 0.04 0.02 0.02 0.01 0.01 0.01 0.02 0.05 0.08 0.08 0.05 0.02 0.02 0.03 0.04 0.03 0.03 0.02 0.01 0.01 0.00 0.00
0.06 0.05 0.04 0.06 0.08 0.13 0.11 0.09 0.08 0.06 0.06 0.06 0.06 0.07 0.06 0.06 0.04 0.04 0.04 0.05 0.07 0.06 0.03 0.02 0.01 0.01 0.01 0.01 0.01 0.03 0.06 0.06 0.05 0.04 0.04 0.05 0.04 0.03 0.04 0.03 0.02 0.01 0.01
0.07 0.05 0.05 0.06 0.09 0.12 0.13 0.10 0.08 0.07 0.07 0.06 0.06 0.07 0.07 0.06 0.05 0.04 0.03 0.04 0.05 0.06 0.04 0.02 0.01 0.01 0.01 0.01 0.02 0.02 0.02 0.04 0.05 0.05 0.04 0.04 0.05 0.05 0.05 0.05 0.03 0.02 0.01
0.07 0.06 0.07 0.08 0.10 0.11 0.12 0.11 0.08 0.07 0.08 0.08 0.08 0.08 0.07 0.06 0.05 0.04 0.03 0.03 0.04 0.05 0.05 0.04 0.03 0.02 0.01 0.01 0.01 0.02 0.02 0.02 0.04 0.04 0.03 0.03 0.04 0.05 0.06 0.05 0.04 0.03 0.02
0.07 0.07 0.06 0.07 0.09 0.12 0.12 0.11 0.10 0.08 0.08 0.09 0.08 0.08 0.09 0.07 0.06 0.06 0.06 0.05 0.05 0.05 0.05 0.04 0.03 0.02 0.02 0.02 0.01 0.01 0.02 0.02 0.03 0.03 0.03 0.03 0.03 0.04 0.06 0.07 0.05 0.03 0.03
0.08 0.10 0.07 0.07 0.07 0.10 0.14 0.12 0.11 0.09 0.07 0.08 0.07 0.07 0.08 0.07 0.07 0.07 0.08 0.09 0.09 0.07 0.05 0.05 0.04 0.03 0.01 0.01 0.01 0.02 0.02 0.02 0.02 0.03 0.03 0.03 0.02 0.03 0.05 0.06 0.06 0.06 0.05
0.07 0.10 0.10 0.08 0.06 0.06 0.12 0.14 0.11 0.08 0.07 0.07 0.06 0.05 0.05 0.05 0.04 0.04 0.04 0.05 0.07 0.08 0.08 0.07 0.05 0.03 0.03 0.01 0.01 0.01 0.01 0.02 0.02 0.02 0.03 0.03 0.02 0.02 0.02 0.05 0.06 0.06 0.06
0.07 0.07 0.08 0.08 0.05 0.05 0.07 0.13 0.13 0.10 0.07 0.06 0.05 0.04 0.04 0.04 0.03 0.03 0.03 0.04 0.05 0.06 0.08 0.08 0.06 0.03 0.03 0.02 0.02 0.01 0.01 0.01 0.01 0.01 0.02 0.02 0.02 0.01 0.01 0.02 0.04 0.05 0.05
0.07 0.05 0.06 0.06 0.04 0.04 0.05 0.09 0.13 0.11 0.09 0.07 0.06 0.04 0.03 0.03 0.03 0.03 0.03 0.03 0.03 0.04 0.05 0.06 0.07 0.05 0.03 0.02 0.02 0.02 0.01 0.01 0.01 0.01 0.01 0.02 0.02 0.01 0.01 0.01 0.02 0.04 0.05
0.06 0.05 0.04 0.05 0.04 0.03 0.03 0.06 0.09 0.11 0.10 0.09 0.07 0.05 0.03 0.02 0.02 0.02 0.03 0.03 0.03 0.03 0.03 0.03 0.04 0.05 0.05 0.05 0.04 0.03 0.01 0.01 0.01 0.01 0.01 0.02 0.02 0.02 0.01 0.01 0.01 0.02 0.04
0.06 0.05 0.04 0.04 0.04 0.04 0.03 0.05 0.06 0.07 0.09 0.09 0.09 0.07 0.04 0.03 0.02 0.01 0.01 0.02 0.02 0.03 0.03 0.03 0.02 0.03 0.04 0.05 0.05 0.04 0.03 0.02 0.01 0.01 0.02 0.02 0.02 0.02 0.01 0.01 0.01 0.01 0.02
0.04 0.05 0.05 0.04 0.03 0.03 0.03 0.04 0.06 0.06 0.06 0.08 0.08 0.09 0.07 0.04 0.02 0.01 0.01 0.01 0.02 0.02 0.02 0.02 0.02 0.02 0.03 0.04 0.04 0.04 0.04 0.04 0.03 0.03 0.03 0.03 0.03 0.03 0.02 0.01 0.01 0.01 0.02
0.04 0.04 0.05 0.04 0.03 0.03 0.03 0.03 0.05 0.06 0.05 0.06 0.06 0.07 0.08 0.06 0.04 0.02 0.01 0.01 0.01 0.02 0.02 0.02 0.02 0.02 0.03 0.03 0.04 0.04 0.04 0.04 0.04 0.04 0.04 0.04 0.04 0.04 0.03 0.02 0.02 0.02 0.02
0.04 0.04 0.04 0.04 0.04 0.03 0.03 0.04 0.04 0.05 0.05 0.06 0.06 0.06 0.06 0.06 0.05 0.03 0.02 0.01 0.01 0.01 0.01 0.02 0.02 0.02 0.03 0.03 0.04 0.04 0.04 0.04 0.04 0.04 0.05 0.06 0.05 0.05 0.04 0.03 0.03 0.02 0.02
0.05 0.05 0.05 0.04 0.04 0.04 0.04 0.04 0.05 0.06 0.06 0.06 0.06 0.06 0.06 0.07 0.05 0.04 0.03 0.02 0.02 0.02 0.02 0.02 0.02 0.02 0.03 0.04 0.04 0.03 0.03 0.03 0.04 0.04 0.05 0.05 0.06 0.06 0.05 0.04 0.04 0.03 0.03
0.03 0.05 0.06 0.07 0.06 0.05 0.05 0.05 0.06 0.06 0.06 0.06 0.05 0.05 0.06 0.07 0.06 0.05 0.04 0.03 0.03 0.03 0.02 0.02 0.02 0.02 0.02 0.02 0.03 0.03 0.03 0.04 0.05 0.04 0.05 0.06 0.05 0.05 0.05 0.04 0.04 0.04 0.03
0.03 0.04 0.05 0.07 0.08 0.07 0.06 0.06 0.06 0.07 0.07 0.06 0.05 0.04 0.05 0.06 0.06 0.05 0.05 0.05 0.04 0.03 0.03 0.03 0.03 0.02 0.02 0.02 0.02 0.04 0.04 0.04 0.03 0.04 0.06 0.08 0.06 0.06 0.05 0.04 0.04 0.04 0.03
0.04 0.04 0.06 0.07 0.08 0.07 0.07 0.07 0.07 0.07 0.07 0.06 0.05 0.04 0.03 0.04 0.04 0.05 0.05 0.06 0.05 0.04 0.04 0.03 0.02 0.02 0.02 0.02 0.02 0.03 0.04 0.05 0.04 0.04 0.06 0.09 0.07 0.06 0.05 0.05 0.04 0.04 0.04
0.04 0.04 0.04 0.06 0.08 0.07 0.07 0.06 0.07 0.07 0.07 0.06 0.06 0.06 0.04 0.03 0.03 0.04 0.05 0.05 0.06 0.05 0.04 0.03 0.03 0.03 0.03 0.04 0.04 0.04 0.04 0.05 0.05 0.05 0.05 0.06 0.07 0.06 0.06 0.06 0.06 0.05 0.04
0.03 0.02 0.02 0.03 0.05 0.06 0.08 0.06 0.06 0.08 0.09 0.07 0.06 0.06 0.06 0.05 0.04 0.04 0.05 0.05 0.06 0.05 0.04 0.04 0.03 0.03 0.03 0.03 0.03 0.03 0.03 0.03 0.03 0.04 0.04 0.04 0.05 0.05 0.07 0.07 0.06 0.06 0.06
MSLP
1019.51 1019.50 1019.48 1019.47 1019.49 1019.54 1019.63 1019.76 1019.90 1020.06 1020.20 1020.32 1020.41 1020.46 1020.49 1020.50 1020.48 1020.46 1020.44 1020.43 1020.42 1020.43 1020.45 1020.50 1020.56 1020.63 1020.71 1020.79 1020.87 1020.93 1020.97 1021.00 1021.02 1021.03 1021.05 1021.09 1021.15 1021.22 1021.31 1021.40 1021.48 1021.55 1021.62
1019.70 1019.66 1019.62 1019.58 1019.59 1019.63 1019.73 1019.86 1020.02 1020.19 1020.35 1020.48 1020.58 1020.65 1020.69 1020.70 1020.70 1020.69 1020.67 1020.65 1020.63 1020.61 1020.59 1020.58 1020.59 1020.61 1020.65 1020.69 1020.74 1020.79 1020.83 1020.86 1020.88 1020.91 1020.94 1020.99 1021.05 1021.13 1021.22 1021.31 1021.40 1021.49 1021.57
1019.89 1019.82 1019.74 1019.70 1019.69 1019.74 1019.84 1019.99 1020.17 1020.35 1020.52 1020.67 1020.78 1020.87 1020.94 1020.98 1021.02 1021.03 1021.03 1021.02 1020.99 1020.94 1020.88 1020.82 1020.76 1020.71 1020.68 1020.66 1020.66 1020.68 1020.70 1020.73 1020.75 1020.78 1020.82 1020.87 1020.94 1021.02 1021.10 1021.19 1021.29 1021.38 1021.47
1020.09 1019.99 1019.90 1019.85 1019.84 1019.89 1020.00 1020.16 1020.34 1020.53 1020.71 1020.87 1021.01 1021.12 1021.22 1021.31 1021.38 1021.45 1021.50 1021.52 1021.50 1021.45 1021.35 1021.24 1021.10 1020.98 1020.86 1020.77 1020.71 1020.68 1020.67 1020.67 1020.69 1020.72 1020.76 1020.81 1020.87 1020.94 1021.02 1021.10 1021.19 1021.28 1021.37
1020.34 1020.23 1020.12 1020.06 1020.05 1020.11 1020.22 1020.38 1020.56 1020.75 1020.92 1021.08 1021.22 1021.35 1021.48 1021.62 1021.76 1021.89 1022.01 1022.09 1022.11 1022.07 1021.97 1021.82 1021.63 1021.43 1021.24 1021.07 1020.94 1020.84 1020.79 1020.76 1020.76 1020.78 1020.81 1020.84 1020.89 1020.95 1021.01 1021.08 1021.16 1021.23 1021.32
1020.66 1020.53 1020.42 1020.35 1020.34 1020.40 1020.51 1020.65 1020.82 1020.98 1021.13 1021.26 1021.39 1021.52 1021.68 1021.86 1022.06 1022.28 1022.48 1022.64 1022.74 1022.75 1022.68 1022.52 1022.30 1022.05 1021.80 1021.56 1021.36 1021.20 1021.09 1021.03 1021.00 1020.99 1021.00 1021.02 1021.05 1021.09 1021.14 1021.19 1021.25 1021.31 1021.38
1021.02 1020.89 1020.77 1020.70 1020.69 1020.74 1020.84 1020.96 1021.09 1021.21 1021.31 1021.40 1021.49 1021.61 1021.77 1021.98 1022.24 1022.53 1022.83 1023.09 1023.28 1023.38 1023.37 1023.25 1023.04 1022.78 1022.48 1022.20 1021.94 1021.74 1021.58 1021.47 1021.41 1021.37 1021.36 1021.35 1021.37 1021.38 1021.41 1021.45 1021.49 1021.53 1021.58
1021.40 1021.26 1021.15 1021.08 1021.07 1021.11 1021.18 1021.28 1021.36 1021.42 1021.46 1021.49 1021.53 1021.60 1021.74 1021.96 1022.26 1022.62 1023.01 1023.37 1023.67 1023.87 1023.95 1023.90 1023.74 1023.50 1023.22 1022.92 1022.64 1022.39 1022.20 1022.06 1021.96 1021.90 1021.85 1021.83 1021.82 1021.82 1021.83 1021.85 1021.88 1021.92 1021.95
1021.73 1021.61 1021.50 1021.44 1021.42 1021.46 1021.51 1021.57 1021.61 1021.62 1021.59 1021.54 1021.51 1021.54 1021.64 1021.84 1022.15 1022.55 1023.00 1023.45 1023.85 1024.16 1024.34 1024.40 1024.32 1024.14 1023.89 1023.62 1023.34 1023.09 1022.88 1022.72 1022.59 1022.51 1022.44 1022.40 1022.38 1022.37 1022.37 1022.38 1022.40 1022.43 1022.46
1021.97 1021.86 1021.76 1021.71 1021.70 1021.73 1021.78 1021.82 1021.83 1021.79 1021.71 1021.60 1021.50 1021.46 1021.50 1021.67 1021.96 1022.36 1022.84 1023.35 1023.83 1024.23 1024.52 1024.68 1024.70 1024.61 1024.43 1024.21 1023.96 1023.73 1023.53 1023.36 1023.23 1023.13 1023.06 1023.01 1022.98 1022.96 1022.96 1022.98 1023.00 1023.03 1023.06
1022.08 1021.98 1021.90 1021.86 1021.86 1021.90 1021.96 1022.00 1022.00 1021.94 1021.83 1021.69 1021.54 1021.43 1021.42 1021.52 1021.76 1022.14 1022.61 1023.14 1023.66 1024.13 1024.51 1024.76 1024.88 1024.88 1024.79 1024.63 1024.45 1024.26 1024.08 1023.93 1023.80 1023.71 1023.64 1023.59 1023.56 1023.55 1023.56 1023.59 1023.62 1023.66 1023.70
1022.03 1021.94 1021.87 1021.85 1021.88 1021.94 1022.02 1022.09 1022.11 1022.07 1021.97 1021.81 1021.64 1021.50 1021.42 1021.47 1021.65 1021.96 1022.39 1022.90 1023.42 1023.92 1024.35 1024.68 1024.88 1024.97 1024.96 1024.89 1024.77 1024.63 1024.49 1024.37 1024.27 1024.19 1024.14 1024.10 1024.09 1024.10 1024.13 1024.17 1024.22 1024.27 1024.31
1021.85 1021.76 1021.70 1021.69 1021.74 1021.84 1021.96 1022.07 1022.15 1022.16 1022.09 1021.97 1021.80 1021.65 1021.54 1021.53 1021.64 1021.89 1022.25 1022.70 1023.19 1023.69 1024.13 1024.50 1024.76 1024.93 1025.00 1025.00 1024.94 1024.86 1024.78 1024.70 1024.62 1024.58 1024.55 1024.54 1024.55 1024.58 1024.62 1024.69 1024.75 1024.81 1024.86
1021.54 1021.45 1021.40 1021.40 1021.46 1021.59 1021.76 1021.93 1022.08 1022.16 1022.17 1022.11 1021.99 1021.86 1021.74 1021.70 1021.75 1021.92 1022.21 1022.58 1023.02 1023.48 1023.92 1024.30 1024.60 1024.82 1024.95 1025.02 1025.03 1025.00 1024.97 1024.93 1024.89 1024.88 1024.88 1024.89 1024.93 1024.98 1025.05 1025.13 1025.20 1025.27 1025.31
1021.16 1021.06 1020.99 1021.00 1021.07 1021.22 1021.43 1021.66 1021.88 1022.06 1022.16 1022.18 1022.13 1022.05 1021.95 1021.90 1021.92 1022.03 1022.25 1022.55 1022.93 1023.34 1023.75 1024.13 1024.46 1024.71 1024.89 1025.01 1025.07 1025.10 1025.11 1025.11 1025.11 1025.12 1025.15 1025.19 1025.25 1025.33 1025.41 1025.50 1025.58 1025.64 1025.67
1020.75 1020.62 1020.54 1020.53 1020.60 1020.76 1020.99 1021.26 1021.54 1021.80 1021.99 1022.10 1022.14 1022.13 1022.08 1022.05 1022.06 1022.14 1022.31 1022.56 1022.88 1023.25 1023.64 1024.02 1024.36 1024.64 1024.86 1025.02 1025.13 1025.20 1025.25 1025.28 1025.31 1025.34 1025.39 1025.46 1025.53 1025.62 1025.71 1025.80 1025.87 1025.91 1025.93
1020.34 1020.18 1020.07 1020.02 1020.07 1020.21 1020.44 1020.73 1021.05 1021.36 1021.62 1021.82 1021.95 1022.01 1022.03 1022.04 1022.07 1022.15 1022.31 1022.54 1022.83 1023.18 1023.56 1023.94 1024.30 1024.61 1024.87 1025.07 1025.22 1025.32 1025.39 1025.45 1025.50 1025.55 1025.61 1025.68 1025.77 1025.86 1025.94 1026.02 1026.08 1026.10 1026.09
1019.95 1019.77 1019.62 1019.53 1019.53 1019.63 1019.83 1020.10 1020.42 1020.75 1021.06 1021.32 1021.52 1021.66 1021.75 1021.82 1021.89 1022.00 1022.17 1022.40 1022.70 1023.06 1023.45 1023.85 1024.23 1024.58 1024.88 1025.12 1025.30 1025.44 1025.53 1025.60 1025.66 1025.72 1025.79 1025.86 1025.94 1026.02 1026.10 1026.16 1026.20 1026.20 1026.15
1019.60 1019.38 1019.19 1019.06 1019.00 1019.03 1019.17 1019.38 1019.67 1019.98 1020.30 1020.59 1020.84 1021.04 1021.20 1021.34 1021.47 1021.63 1021.84 1022.11 1022.44 1022.82 1023.24 1023.67 1024.10 1024.49 1024.83 1025.11 1025.33 1025.50 1025.61 1025.70 1025.76 1025.82 1025.88 1025.95 1026.02 1026.09 1026.15 1026.19 1026.21 1026.18 1026.11
1019.26 1019.02 1018.79 1018.60 1018.48 1018.44 1018.48 1018.62 1018.83 1019.10 1019.39 1019.68 1019.95 1020.20 1020.42 1020.62 1020.82 1021.04 1021.31 1021.62 1022.00 1022.43 1022.89 1023.37 1023.84 1024.28 1024.66 1024.99 1025.25 1025.44 1025.58 1025.68 1025.75 1025.81 1025.86 1025.92 1025.98 1026.03 1026.08 1026.10 1026.09 1026.05 1025.96
1018.91 1018.66 1018.40 1018.16 1017.96 1017.83 1017.78 1017.82 1017.94 1018.13 1018.37 1018.64 1018.91 1019.19 1019.45 1019.71 1019.98 1020.26 1020.59 1020.96 1021.39 1021.86 1022.37 1022.89 1023.41 1023.89 1024.32 1024.69 1024.98 1025.21 1025.37 1025.49 1025.57 1025.63 1025.69 1025.74 1025.79 1025.84 1025.87 1025.87 1025.85 1025.79 1025.69
1018.53 1018.26 1017.98 1017.69 1017.42 1017.20 1017.05 1016.98 1017.00 1017.10 1017.28 1017.51 1017.78 1018.07 1018.37 1018.68 1019.00 1019.34 1019.73 1020.15 1020.62 1021.14 1021.68 1022.24 1022.80 1023.32 1023.79 1024.19 1024.52 1024.78 1024.97 1025.11 1025.21 1025.29 1025.35 1025.41 1025.46 1025.50 1025.52 1025.52 1025.49 1025.42 1025.31
1018.08 1017.81 1017.50 1017.16 1016.83 1016.52 1016.27 1016.10 1016.02 1016.03 1016.15 1016.34 1016.59 1016.89 1017.22 1017.57 1017.95 1018.35 1018.78 1019.24 1019.75 1020.29 1020.86 1021.44 1022.02 1022.57 1023.07 1023.50 1023.87 1024.16 1024.39 1024.56 1024.69 1024.79 1024.87 1024.94 1025.00 1025.04 1025.07 1025.07 1025.03 1024.95 1024.84
1017.53 1017.24 1016.91 1016.53 1016.13 1015.75 1015.41 1015.14 1014.98 1014.92 1014.98 1015.14 1015.38 1015.69 1016.05 1016.45 1016.87 1017.31 1017.78 1018.28 1018.81 1019.37 1019.95 1020.54 1021.13 1021.69 1022.21 1022.67 1023.07 1023.40 1023.66 1023.87 1024.04 1024.18 1024.28 1024.38 1024.46 1024.51 1024.54 1024.55 1024.51 1024.43 1024.31
1016.85 1016.54 1016.18 1015.75 1015.30 1014.85 1014.43 1014.10 1013.86 1013.75 1013.77 1013.91 1014.16 1014.49 1014.88 1015.32 1015.78 1016.27 1016.78 1017.30 1017.85 1018.42 1019.00 1019.59 1020.18 1020.75 1021.29 1021.77 1022.20 1022.57 1022.88 1023.13 1023.34 1023.51 1023.66 1023.78 1023.88 1023.96 1024.00 1024.01 1023.97 1023.89 1023.76
1016.03 1015.69 1015.28 1014.81 1014.31 1013.80 1013.33 1012.94 1012.66 1012.51 1012.51 1012.65 1012.91 1013.27 1013.71 1014.19 1014.70 1015.24 1015.78 1016.33 1016.90 1017.48 1018.06 1018.66 1019.25 1019.83 1020.38 1020.89 1021.34 1021.75 1022.10 1022.40 1022.65 1022.87 1023.05 1023.21 1023.33 1023.42 1023.47 1023.47 1023.43 1023.35 1023.21
Thickness
5615 5617 5619 5622 5625 5627 5629 5631 5633 5635 5636 5637 5639 5640 5641 5641 5643 5644 5646 5647 5648 5649 5649 5650 5650 5650 5649 5649 5648 5648 5647 5646 5646 5645 5644 5643 5642 5641 5640 5639 5638 5637 5636
5605 5607 5610 5613 5616 5619 5621 5623 5626 5628 5629 5630 5631 5633 5634 5635 5636 5638 5639 5641 5642 5643 5644 5644 5645 5645 5645 5645 5644 5644 5643 5642 5642 5642 5641 5640 5639 5638 5637 5635 5634 5633 5631
5596 5598 5601 5604 5607 5610 5613 5615 5618 5620 5621 5623 5624 5626 5627 5629 5630 5631 5633 5634 5635 5637 5638 5639 5639 5640 5640 5640 5640 5640 5639 5638 5638 5637 5637 5636 5635 5634 5633 5631 5630 5629 5627
5587 5590 5592 5594 5598 5601 5604 5607 5610 5612 5613 5614 5616 5618 5620 5622 5623 5624 5626 5627 5629 5630 5631 5632 5633 5634 5635 5635 5635 5635 5635 5634 5633 5633 5633 5632 5631 5630 5629 5627 5626 5624 5623
5578 5581 5583 5585 5588 5592 5596 5599 5601 5604 5605 5606 5608 5610 5612 5614 5616 5618 5619 5620 5622 5624 5625 5626 5627 5628 5629 5630 5630 5630 5630 5630 5629 5629 5628 5628 5627 5626 5625 5623 5622 5620 5619
5568 5571 5574 5576 5579 5583 5587 5591 5593 5595 5597 5599 5600 5601 5604 5606 5608 5610 5612 5613 5615 5617 5618 5619 5620 5621 5623 5624 5625 5625 5625 5625 5625 5624 5624 5623 5622 5621 5620 5619 5617 5616 5614
5558 5561 5564 5567 5570 5574 5577 5581 5585 5586 5588 5590 5591 5592 5595 5598 5601 5603 5605 5606 5608 5610 5611 5612 5614 5615 5616 5617 5619 5620 5620 5620 5620 5620 5619 5618 5618 5617 5616 5615 5613 5611 5610
5548 5551 5554 5558 5561 5564 5568 5572 5576 5578 5579 5582 5584 5585 5587 5590 5593 5596 5597 5599 5601 5602 5604 5605 5607 5608 5610 5611 5612 5613 5614 5615 5614 5615 5614 5614 5613 5613 5611 5610 5609 5607 5605
5537 5541 5544 5548 5551 5556 5560 5563 5567 5571 5572 5573 5577 5579 5582 5585 5585 5588 5590 5592 5594 5595 5597 5598 5600 5602 5603 5605 5606 5607 5608 5608 5609 5609 5609 5608 5608 5607 5606 5605 5604 5602 5601
5528 5532 5535 5539 5543 5547 5551 5555 5559 5562 5565 5566 5568 5572 5575 5579 5578 5580 5582 5585 5586 5588 5590 5591 5593 5595 5596 5597 5598 5600 5601 5602 5602 5603 5603 5603 5602 5601 5601 5599 5599 5598 5596
5518 5522 5526 5530 5534 5538 5542 5546 5550 5553 5557 5559 5561 5562 5565 5569 5571 5573 5575 5576 5578 5580 5582 5584 5585 5587 5589 5590 5591 5592 5594 5595 5596 5596 5596 5597 5596 5595 5595 5594 5593 5592 5591
5509 5513 5517 5521 5526 5529 5533 5537 5541 5544 5548 5551 5553 5555 5557 5560 5563 5565 5567 5568 5570 5572 5574 5576 5577 5579 5581 5582 5584 5585 5586 5587 5588 5589 5589 5589 5589 5589 5588 5588 5587 5586 5585
5498 5503 5507 5512 5516 5520 5524 5528 5531 5535 5539 5542 5544 5546 5549 5552 5555 5557 5558 5558 5560 5562 5564 5566 5569 5570 5572 5574 5576 5577 5578 5579 5581 5581 5581 5581 5581 5582 5581 5581 5581 5580 5579
5489 5493 5497 5502 5506 5510 5514 5518 5522 5526 5530 5533 5535 5537 5540 5542 5545 5548 5550 5549 5550 5553 5556 5559 5560 5562 5563 5566 5568 5569 5570 5571 5572 5573 5573 5574 5574 5574 5574 5574 5573 5572 5572
5478 5483 5487 5493 5497 5501 5505 5509 5513 5516 5519 5522 5525 5528 5530 5532 5535 5538 5540 5542 5543 5545 5549 5550 5552 5554 5556 5557 5559 5560 5562 5563 5564 5565 5565 5566 5566 5566 5566 5566 5566 5565 5564
5469 5473 5478 5483 5488 5492 5496 5500 5504 5507 5509 5512 5515 5518 5520 5522 5525 5527 5530 5532 5534 5536 5539 5542 5543 5546 5547 5548 5549 5550 5552 5553 5554 5555 5556 5557 5557 5558 5558 5559 5558 5558 5557
5459 5464 5468 5473 5478 5483 5487 5490 5494 5498 5500 5502 5505 5508 5511 5514 5516 5517 5519 5521 5523 5525 5527 5530 5532 5534 5536 5538 5539 5540 5541 5543 5544 5546 5547 5548 5548 5549 5550 5550 5550 5549 5549
5449 5454 5458 5463 5468 5473 5477 5481 5484 5488 5491 5494 5496 5499 5502 5505 5507 5508 5510 5512 5513 5515 5517 5519 5520 5522 5525 5527 5529 5530 5531 5533 5535 5536 5537 5538 5538 5539 5540 5541 5541 5540 5540
5439 5444 5448 5453 5459 5463 5467 5472 5476 5479 5483 5486 5488 5490 5493 5495 5498 5499 5501 5503 5504 5505 5507 5508 5511 5512 5514 5516 5518 5519 5521 5522 5524 5525 5526 5527 5528 5529 5530 5531 5531 5531 5531
5429 5434 5438 5444 5449 5453 5458 5462 5466 5470 5474 5478 5480 5482 5484 5486 5489 5491 5492 5493 5494 5495 5496 5498 5500 5502 5504 5506 5507 5509 5510 5511 5513 5515 5515 5516 5517 5518 5520 5521 5522 5522 5522
5418 5424 5428 5433 5438 5443 5449 5452 5456 5461 5465 5468 5471 5473 5475 5477 5480 5482 5484 5485 5485 5486 5487 5489 5491 5492 5494 5495 5498 5500 5501 5501 5502 5504 5505 5506 5507 5509 5509 5510 5511 5512 5512
5408 5413 5418 5423 5429 5434 5440 5444 5448 5453 5455 5459 5462 5464 5466 5467 5469 5472 5474 5477 5478 5479 5480 5481 5482 5485 5488 5489 5489 5490 5490 5490 5492 5495 5494 5496 5496 5498 5499 5500 5501 5502 5502
5398 5403 5408 5414 5420 5425 5431 5436 5439 5443 5447 5450 5453 5454 5456 5458 5460 5461 5463 5465 5467 5470 5473 5474 5475 5477 5479 5481 5480 5480 5480 5482 5484 5485 5483 5485 5486 5487 5489 5490 5491 5491 5491
5389 5394 5400 5405 5411 5417 5422 5427 5431 5434 5438 5441 5444 5446 5447 5449 5451 5452 5454 5454 5457 5460 5464 5465 5468 5470 5469 5469 5471 5472 5472 5470 5471 5471 5473 5473 5475 5476 5478 5480 5480 5480 5480
5381 5387 5392 5397 5403 5409 5414 5418 5422 5425 5428 5432 5434 5436 5438 5440 5443 5444 5445 5446 5448 5450 5452 5454 5456 5457 5458 5459 5459 5459 5458 5459 5460 5460 5461 5462 5464 5464 5466 5469 5469 5469 5469
5374 5379 5384 5389 5395 5401 5406 5411 5413 5416 5420 5423 5425 5427 5430 5433 5435 5435 5436 5438 5439 5442 5442 5442 5443 5444 5446 5447 5448 5449 5451 5450 5450 5450 5451 5450 5451 5450 5452 5457 5457 5457 5457